Regional Weather Roundup
Issued by NWS

Home | Current Version | Previous Version | Text Only | Print | Product List | Glossary Off
Versions: 1 2 3 4 5 6 7 8 9 10 11 12 13 14 15 16 17 18 19 20 21 22 23 24 25 26 27 28 29 30 31 32 33 34 35 36 37 38 39 40 41 42 43 44 45 46 47 48 49 50

000
ASUS44 KOUN 281400
RWROK

WEATHER ROUNDUP FOR OKLAHOMA
NATIONAL WEATHER SERVICE NORMAN OK
800 AM CST SAT FEB 28 2015

NOTE: "FAIR" INDICATES FEW OR NO CLOUDS BELOW 12,000 FEET WITH NO
      SIGNIFICANT WEATHER AND/OR OBSTRUCTIONS TO VISIBILITY.

OKZ001>007-009>012-014-015-017-281500-
NORTHWEST OKLAHOMA AND THE PANHANDLE

CITY           SKY/WX    TMP DP  RH WIND       PRES   REMARKS
GAGE           LGT SNOW  15  12  88 SE6       30.28F FOG     WCI   6
ENID/WOODRING  LGT SNOW  18  16  93 E6        30.39F FOG     WCI   9
$$

OKZ016-021>023-033>039-044-045-281500-
SOUTHWEST OKLAHOMA

CITY           SKY/WX    TMP DP  RH WIND       PRES   REMARKS
LAWTON/REGL    LGT SNOW  21  18  88 NE6       30.39R FOG     WCI  13
LAWTON/FT SILL LGT SNOW  19  18  93 E5        30.36F FOG     WCI  13
FREDERICK      MIX PCPN  20  18  92 E8        30.35S FOG     WCI  10
CLINTON        LGT SNOW  18  14  84 E8        30.33S VSB 3/4 WCI   8
HOBART         LGT SNOW  18  15  88 E9        30.35S VSB 3/4 WCI   7
ALTUS AFB      LGT SNOW  19  19 100 E6        30.36R VSB 1   WCI  11
$$

OKZ018>020-024>031-281500-
CENTRAL OKLAHOMA

CITY           SKY/WX    TMP DP  RH WIND       PRES   REMARKS
OKLAHOMA CITY  LGT SNOW  20  15  81 E7        30.38S WCI  11
OKC/WILEY POST LGT SNOW  19  15  84 E6        30.40S FOG     WCI  11
STILLWATER     LGT SNOW  20  16  84 E6        30.42F VSB 3/4 WCI  12
GUTHRIE        LGT SNOW  20  16  84 NE5       30.41S FOG     WCI  13
$$

OKZ008-013-054>072-281500-
NORTHEAST OKLAHOMA

CITY           SKY/WX    TMP DP  RH WIND       PRES   REMARKS
TULSA          LGT SNOW  22  20  92 E5        30.47S VSB 3/4 WCI  16
TULSA/JONES    SNOW      22  20  92 E5        30.47S VSB 1/2 WCI  16
PONCA CITY     LGT SNOW  19  16  88 SE6       30.44S VSB 3/4 WCI  11
BARTLESVILLE   LGT SNOW  20  17  88 E3        30.50R VSB 3/4
MUSKOGEE       LGT SNOW  22  18  85 E13       30.49S VSB 1   WCI  10
$$

OKZ032-040>043-046>053-073>077-281500-
SOUTH CENTRAL/SOUTHEAST OKLAHOMA

CITY           SKY/WX    TMP DP  RH WIND       PRES   REMARKS
MCALESTER      LGT SNOW  23  19  85 NE6       30.44F FOG     WCI  16
$$



USA.gov is the U.S. government's official web portal to all federal, state and local government web resources and services.